[[{"header":{"parameterUnit":"m.s-1","parameterCategory":1,"la1":30.2991,"la2":30.254,"lo1":-89.0895,"lo2":-89.0444,"dy":0.0017,"dx":0.0017,"nx":28,"ny":28,"refTime":"2026-02-25T09:00:00:Z","depth":0,"parameterNumber":2,"parameterNumberName":"U-component_of_WINDS"},"data":[0,0,0,0,0,0,0,0,0,0,0,0,0,0,0,0,0,0,0,0,0,0,0,0,0,0,0,0,0,0,0,0,0,0,0,0,0,0,0,0,0,0,0,0,0,0,0,0,0,0,0,0,0,0,0,0,0,0,-0.2452,-0.2452,0,-0.2413,-0.2412,-0.2412,-0.2406,-0.2406,-0.2406,-0.2407,-0.2364,-0.2362,-0.2361,0,0,0,0,0,0,0,0,0,0,0,0,0,-0.252,-0.2519,-0.2452,-0.2452,-0.2451,-0.2413,-0.2412,-0.2412,-0.2405,-0.2406,-0.2406,-0.2407,-0.2364,-0.2363,-0.2361,0,0,0,0,0,0,0,0,0,0,0,0,0,-0.2486,-0.2518,-0.2452,-0.2444,-0.2442,-0.2413,-0.2412,-0.2412,-0.2405,-0.2406,-0.2406,-0.2407,-0.2365,-0.2363,-0.2361,-0.2337,0,0,-0.2354,-0.2353,0,0,0,0,0,0,0,0,-0.2488,-0.2484,-0.2445,-0.2444,-0.2443,-0.2415,-0.2421,-0.2386,-0.2405,-0.2419,-0.2407,-0.2407,-0.238,-0.2377,-0.2368,-0.2335,-0.2333,-0.2354,-0.2352,-0.2351,-0.2351,0,0,0,0,0,0,0,-0.2491,-0.2486,-0.2437,-0.2445,-0.2443,-0.2441,-0.2437,-0.2414,-0.2397,-0.2418,-0.2418,-0.2413,-0.238,-0.237,-0.2367,-0.2332,-0.2354,-0.2352,-0.235,-0.235,-0.2277,-0.2276,0,0,0,0,0,0,-0.2495,-0.2488,-0.2438,-0.2435,-0.2467,-0.2439,-0.2435,-0.2423,-0.2397,-0.2394,-0.2413,-0.2413,-0.2374,-0.237,-0.2366,-0.2335,-0.2351,-0.2349,-0.2348,-0.2277,-0.2277,-0.2276,0,0,0,0,0,0,-0.2496,-0.2491,-0.2439,-0.2461,-0.2455,-0.2438,-0.2425,-0.2422,-0.2413,-0.2393,-0.239,-0.2406,-0.2374,-0.2369,-0.2344,-0.2334,-0.2348,-0.2346,-0.2278,-0.2277,-0.2276,-0.2275,0,0,0,0,0,0,-0.2498,-0.2491,-0.2482,-0.2461,-0.2454,-0.2419,-0.2424,-0.2421,-0.2409,-0.2409,-0.2387,-0.2383,-0.2374,-0.2347,-0.2342,-0.2331,-0.2345,-0.2279,-0.2278,-0.2277,-0.2276,-0.2275,-0.2273,0,0,0,0,0,-0.2501,-0.2483,-0.2482,-0.2476,-0.2442,-0.2418,-0.2414,-0.2404,-0.2409,-0.2399,-0.2387,-0.2384,-0.2336,-0.2345,-0.2339,-0.2327,-0.228,-0.2278,-0.2277,-0.2277,-0.2275,-0.2273,0,0,0,0,0,0,-0.2502,-0.248,-0.2478,-0.2453,-0.2438,-0.2417,-0.2405,-0.2402,-0.2385,-0.2385,-0.2373,-0.2368,-0.2344,-0.2333,-0.2343,-0.2303,-0.2308,-0.2305,-0.231,-0.2308,-0.2307,-0.2309,-0.2343,0,0,0,0,0,-0.25,-0.2483,-0.2464,-0.2444,-0.2437,-0.2422,-0.2412,-0.2406,-0.2389,-0.2382,-0.2368,-0.2351,-0.2332,-0.232,-0.2301,-0.2275,-0.227,-0.2264,-0.2263,-0.2261,-0.2259,-0.2244,-0.2241,-0.2271,-0.2271,-0.2272,0,0,-0.2494,-0.248,-0.247,-0.2444,-0.2431,-0.2414,-0.2417,-0.2398,-0.2384,-0.2379,-0.2355,-0.2344,-0.2324,-0.2299,-0.2287,-0.2289,-0.225,-0.226,-0.2259,-0.2257,-0.2242,-0.2239,-0.2237,-0.2271,-0.2271,-0.2271,0,0,-0.2475,-0.2463,-0.2445,-0.2432,-0.2413,-0.2404,-0.24,-0.238,-0.2372,-0.2348,-0.2344,-0.2327,-0.2295,-0.2282,-0.227,-0.2247,-0.2243,-0.2241,-0.2233,-0.2218,-0.2216,-0.2214,-0.2205,-0.2202,-0.2239,-0.2239,-0.2239,0,-0.247,-0.2444,-0.2435,-0.2417,-0.2405,-0.24,-0.2381,-0.237,-0.2345,-0.2337,-0.234,-0.23,-0.2287,-0.2258,-0.2252,-0.2243,-0.2238,-0.2243,-0.2217,-0.2215,-0.2213,-0.2204,-0.2201,-0.2239,-0.2239,-0.2239,-0.2239,0,-0.2439,-0.242,-0.2408,-0.2385,-0.2373,-0.2354,-0.2342,-0.233,-0.2325,-0.2316,-0.2291,-0.2275,-0.2253,-0.2246,-0.2241,-0.2217,-0.2219,-0.222,-0.2225,-0.221,-0.2201,-0.2198,-0.2238,-0.2238,-0.2239,-0.2239,0,0,-0.2418,-0.2392,-0.2387,-0.2377,-0.2356,-0.2342,-0.2323,-0.2302,-0.2292,-0.2276,-0.2259,-0.2233,-0.2234,-0.2221,-0.2214,-0.2202,-0.2184,-0.2204,-0.2204,-0.2201,-0.2155,-0.2154,-0.2151,-0.2182,-0.2182,-0.2181,-0.2157,0,-0.2395,-0.2362,-0.2354,-0.2325,-0.2308,-0.2304,-0.2287,-0.2273,-0.2263,-0.2247,-0.2237,-0.2218,-0.2221,-0.2213,-0.2201,-0.2189,-0.2175,-0.2191,-0.2166,-0.2165,-0.217,-0.2146,-0.2145,-0.2123,-0.2154,-0.2153,-0.2153,0,-0.2365,-0.2349,-0.2318,-0.23,-0.2292,-0.2278,-0.2259,-0.2243,-0.2226,-0.2221,-0.2207,-0.2202,-0.2182,-0.2189,-0.216,-0.2172,-0.2161,-0.2154,-0.2153,-0.2149,-0.2157,-0.2141,-0.2115,-0.2112,-0.2147,-0.2148,-0.2148,0,-0.2352,-0.2322,-0.2301,-0.2292,-0.227,-0.226,-0.225,-0.2234,-0.2223,-0.2206,-0.2198,-0.2179,-0.2168,-0.2153,-0.2143,-0.2149,-0.2115,-0.2122,-0.2109,-0.2109,-0.2101,-0.2101,-0.2072,-0.2096,-0.2096,-0.2096,-0.2096,0,-0.2327,-0.2308,-0.2294,-0.2281,-0.226,-0.2251,-0.223,-0.2221,-0.2206,-0.219,-0.2186,-0.2171,-0.2159,-0.2142,-0.2134,-0.2111,-0.2107,-0.2101,-0.2099,-0.2101,-0.2101,-0.2093,-0.2094,-0.2095,-0.2095,-0.2096,-0.2096,0,-0.2308,-0.2299,-0.2274,-0.2256,-0.2251,-0.2236,-0.2221,-0.2207,-0.2198,-0.2178,-0.2173,-0.2158,-0.2139,-0.2127,-0.2102,-0.2097,-0.2072,-0.2071,-0.2077,-0.2076,-0.2064,-0.2065,-0.2028,-0.2022,-0.205,-0.205,-0.205,0,-0.2293,-0.2279,-0.2259,-0.2249,-0.2239,-0.2222,-0.221,-0.2201,-0.2189,-0.2169,-0.2158,-0.2138,-0.2121,-0.209,-0.2077,-0.2058,-0.2056,-0.2044,-0.2053,-0.2055,-0.2055,-0.2055,-0.2054,-0.2042,-0.2042,-0.2042,-0.2041,0,-0.2266,-0.2262,-0.2246,-0.2228,-0.2214,-0.2199,-0.2185,-0.2176,-0.2165,-0.2151,-0.2131,-0.2119,-0.2094,-0.2074,-0.2054,-0.2043,-0.204,-0.2039,-0.2035,-0.2036,-0.2041,-0.2037,-0.2072,-0.204,-0.204,-0.204,-0.204,-0.204,-0.2248,-0.2235,-0.2219,-0.2201,-0.219,-0.2176,-0.2163,-0.2152,-0.2136,-0.2115,-0.2111,-0.209,-0.2073,-0.2046,-0.2036,-0.2019,-0.2021,-0.2015,-0.2013,-0.2012,-0.2011,-0.2044,-0.2015,-0.2015,-0.2015,-0.2015,-0.2015,0,-0.222,-0.221,-0.2194,-0.2174,-0.216,-0.2159,-0.2143,-0.2131,-0.2113,-0.2098,-0.2083,-0.206,-0.2041,-0.2027,-0.2007,-0.1996,-0.1994,-0.1991,-0.1992,-0.1989,-0.2011,-0.2016,-0.1993,-0.1993,-0.1993,-0.1993,-0.1993,-0.1993,-0.2204,-0.2182,-0.2176,-0.2148,-0.2138,-0.2118,-0.2109,-0.2096,-0.2085,-0.206,-0.2044,-0.2036,-0.2021,-0.2001,-0.1983,-0.198,-0.1972,-0.1969,-0.1965,-0.1985,-0.1988,-0.199,-0.1995,-0.1968,-0.1968,-0.1945,-0.1945,-0.1945]},{"header":{"parameterUnit":"m.s-1","parameterCategory":1,"la1":30.2991,"la2":30.254,"lo1":-89.0895,"lo2":-89.0444,"dy":0.0017,"dx":0.0017,"nx":28,"ny":28,"refTime":"2026-02-25T09:00:00:Z","depth":0,"parameterNumber":3,"parameterNumberName":"V-component_of_WINDS"},"data":[0,0,0,0,0,0,0,0,0,0,0,0,0,0,0,0,0,0,0,0,0,0,0,0,0,0,0,0,0,0,0,0,0,0,0,0,0,0,0,0,0,0,0,0,0,0,0,0,0,0,0,0,0,0,0,0,0,0,2.1072,2.1073,0,2.1148,2.1149,2.115,2.1146,2.1145,2.1144,2.1143,2.1221,2.1223,2.1227,0,0,0,0,0,0,0,0,0,0,0,0,0,2.0924,2.0927,2.1072,2.1073,2.1074,2.1148,2.1149,2.115,2.1146,2.1145,2.1144,2.1142,2.1219,2.1223,2.1227,0,0,0,0,0,0,0,0,0,0,0,0,0,2.0993,2.0927,2.1072,2.1081,2.1083,2.1148,2.1149,2.115,2.1146,2.1145,2.1143,2.1142,2.1218,2.1223,2.1227,2.1288,0,0,2.1241,2.1243,0,0,0,0,0,0,0,0,2.0989,2.0998,2.1079,2.1081,2.1083,2.1136,2.1125,2.1197,2.1147,2.1122,2.1143,2.1141,2.1194,2.12,2.1218,2.1292,2.1295,2.1242,2.1245,2.1247,2.1248,0,0,0,0,0,0,0,2.0984,2.0995,2.1102,2.108,2.1082,2.1081,2.1089,2.1139,2.1166,2.1124,2.1124,2.1133,2.1194,2.1214,2.122,2.1296,2.1242,2.1246,2.1249,2.125,2.1423,2.1425,0,0,0,0,0,0,2.0977,2.0991,2.11,2.1105,2.1031,2.1085,2.1094,2.112,2.1166,2.1171,2.1135,2.1133,2.1206,2.1214,2.1223,2.1297,2.1247,2.1251,2.1254,2.1421,2.1424,2.1426,0,0,0,0,0,0,2.0974,2.0987,2.1097,2.1048,2.1062,2.1089,2.1119,2.1123,2.1142,2.1173,2.1178,2.1149,2.1205,2.1216,2.1272,2.13,2.1253,2.1257,2.1419,2.1422,2.1425,2.1447,0,0,0,0,0,0,2.097,2.0986,2.101,2.1048,2.1064,2.1146,2.1121,2.1125,2.115,2.1148,2.1188,2.1193,2.1205,2.1265,2.1276,2.1305,2.1261,2.1417,2.1421,2.1424,2.1444,2.145,2.1455,0,0,0,0,0,2.0965,2.1013,2.1011,2.1024,2.1095,2.1147,2.1156,2.1169,2.1152,2.1176,2.1196,2.1192,2.1294,2.1271,2.1284,2.1314,2.1415,2.142,2.1424,2.1441,2.1449,2.1455,0,0,0,0,0,0,2.0978,2.1019,2.1017,2.1079,2.111,2.1146,2.1178,2.1176,2.1212,2.1209,2.1223,2.1232,2.1288,2.1306,2.1279,2.1375,2.1353,2.1359,2.1362,2.1369,2.1375,2.137,2.1265,0,0,0,0,0,2.0988,2.1028,2.1061,2.1113,2.1128,2.115,2.1173,2.118,2.1212,2.1225,2.1249,2.128,2.1319,2.1345,2.1382,2.1445,2.1454,2.1473,2.1478,2.1483,2.1489,2.1524,2.1533,2.1439,2.1439,2.1439,0,0,2.1011,2.1037,2.1061,2.1116,2.1141,2.1181,2.1161,2.1205,2.1235,2.1232,2.1286,2.1304,2.134,2.1399,2.1427,2.1417,2.1517,2.1488,2.1492,2.1496,2.1529,2.1538,2.1546,2.1442,2.1441,2.1441,0,0,2.1071,2.1095,2.1141,2.1166,2.1202,2.1216,2.1227,2.1263,2.1275,2.133,2.1328,2.1363,2.143,2.1456,2.1477,2.1545,2.1543,2.1556,2.1588,2.1621,2.1628,2.1635,2.166,2.1669,2.1562,2.1562,2.1562,0,2.1094,2.1155,2.1165,2.1209,2.1233,2.1231,2.1277,2.13,2.1348,2.1364,2.1351,2.1435,2.1458,2.1524,2.154,2.1557,2.157,2.1553,2.1626,2.1633,2.164,2.1664,2.1673,2.1564,2.1564,2.1563,2.1563,0,2.1182,2.1223,2.1256,2.1302,2.1329,2.1374,2.139,2.1416,2.1419,2.1434,2.1489,2.1517,2.156,2.1576,2.158,2.1642,2.1634,2.1623,2.1602,2.165,2.1673,2.1682,2.1566,2.1565,2.1565,2.1565,0,0,2.1257,2.1305,2.1317,2.1337,2.1376,2.1409,2.1453,2.1494,2.1517,2.1548,2.1586,2.1641,2.1632,2.1656,2.1662,2.1691,2.1743,2.1677,2.1678,2.169,2.1814,2.1823,2.1833,2.1741,2.1742,2.1744,2.1811,0,2.1323,2.1402,2.1411,2.1481,2.152,2.1517,2.1555,2.1582,2.1597,2.1631,2.1646,2.1686,2.167,2.1684,2.1713,2.1731,2.1769,2.1726,2.1777,2.1778,2.177,2.1845,2.1856,2.1918,2.182,2.1822,2.1823,0,2.1412,2.1445,2.1519,2.1552,2.1568,2.1603,2.1641,2.1674,2.1705,2.1713,2.1739,2.1741,2.1785,2.1759,2.1821,2.1792,2.1812,2.1824,2.1827,2.1834,2.1805,2.1856,2.1938,2.1948,2.1837,2.1835,2.1834,0,2.1461,2.1524,2.1577,2.1594,2.1633,2.1657,2.1674,2.1703,2.1727,2.176,2.1776,2.1813,2.1834,2.1863,2.1874,2.1854,2.1936,2.1911,2.1944,2.1944,2.1964,2.1963,2.2053,2.1974,2.1973,2.1973,2.1973,0,2.1536,2.1581,2.1599,2.1632,2.1682,2.1691,2.1741,2.1757,2.1782,2.1818,2.1816,2.1849,2.1861,2.1896,2.1904,2.1955,2.1964,2.1972,2.1974,2.1973,2.1973,2.1989,2.1986,2.1976,2.1975,2.1975,2.1974,0,2.1601,2.1614,2.1671,2.1703,2.1711,2.1747,2.1774,2.1805,2.1817,2.1862,2.1873,2.1893,2.1933,2.1946,2.1995,2.2001,2.206,2.2057,2.205,2.2051,2.2085,2.2082,2.219,2.2204,2.2114,2.2115,2.2115,0,2.1649,2.1684,2.1718,2.1741,2.1759,2.1797,2.1821,2.183,2.1855,2.1891,2.1918,2.1958,2.1991,2.2055,2.2074,2.2111,2.211,2.2145,2.2116,2.2114,2.2113,2.2112,2.2115,2.2152,2.2153,2.2154,2.2154,0,2.1733,2.1737,2.1772,2.1809,2.1838,2.1867,2.1896,2.1915,2.1927,2.1956,2.1997,2.2022,2.2071,2.2111,2.2148,2.2165,2.2163,2.2162,2.2173,2.2174,2.2169,2.2173,2.2067,2.2161,2.216,2.216,2.2159,2.2159,2.1792,2.1823,2.1852,2.189,2.1912,2.1938,2.1969,2.1984,2.2019,2.206,2.2062,2.2107,2.2134,2.2184,2.2203,2.2237,2.2228,2.2242,2.2246,2.225,2.2253,2.2161,2.2244,2.2244,2.2244,2.2243,2.2243,0,2.1878,2.1895,2.193,2.197,2.2,2.1992,2.2023,2.2048,2.2088,2.2114,2.2145,2.2192,2.223,2.225,2.2288,2.2312,2.2311,2.2321,2.2321,2.2325,2.2259,2.2248,2.2321,2.2321,2.2321,2.2321,2.2321,2.2321,2.1926,2.1978,2.1985,2.2047,2.2064,2.2108,2.2126,2.215,2.217,2.2223,2.2254,2.2266,2.229,2.2329,2.2363,2.2368,2.2383,2.2394,2.2398,2.2337,2.233,2.2322,2.2311,2.2397,2.2397,2.2461,2.2462,2.2462]}]]